Language selection

Features

My Weather Profile Weather Topics  | 

Frobisher Bay: Past 24 Hour Conditions

 

Arviat Airport

09:00 PM CDT 14 April 2021
Disclaimer

This table is a summary of hourly weather conditions for the past 24 hours.
Please note that these observations might not always be representative of weather conditions over their associated marine area.

Date / Time
(CDT)
Wind(knots) Conditions Visibility(km) Pressure(kPa) Air tempC) Relative humidity(%) Dew pointC) Wind Chill
14 April 2021
21:00 S 15 Clear 16 103.3 -10 84 -12 -19
20:00 S 19 Sunny 16 103.3 -9 83 -11 -18
19:00 S 19 Sunny 16 103.4 -8 82 -11 -18
18:00 S 20 Sunny 16 103.4 -8 82 -10 -17
17:00 S 20 Cloudy 24 103.5 -7 80 -10 -17
16:00 S 17 Mostly Cloudy 24 103.6 -7 81 -10 -16
15:00 S 19 Mostly Cloudy 24 103.7 -7 82 -10 -17
14:00 S 21 Mostly Cloudy 24 103.7 -8 80 -10 -17
13:00 S 20 Mostly Cloudy 24 103.8 -8 81 -11 -18
12:00 S 16 gust 22 Mostly Cloudy 24 103.8 -9 81 -11 -18
11:00 S 14 Mostly Cloudy 24 103.9 -10 83 -12 -18
10:00 SSW 16 Mostly Cloudy 24 104.0 -12 90 -13 -22
9:00 SSW 15 Mostly Cloudy 24 104.0 -13 91 -15 -23
8:00 SSW 12 Mostly Cloudy 24 104.1 -15 90 -16 -24
7:00 SSW 12 Mostly Cloudy 24 104.1 -16 89 -18 -26
6:00 SSW 13 Sunny 16 104.2 -17 88 -19 -28
5:00 SSW 11 Mainly Clear 16 104.2 -17 89 -19 -27
4:00 SSW 11 Clear 16 104.2 -17 89 -18 -26
3:00 SW 12 Clear 16 104.2 -16 91 -17 -26
2:00 SSW 10 Clear 16 104.2 -16 88 -18 -25
1:00 S 8 Mainly Clear 16 104.3 -17 87 -19 -26
0:00 SW 9 Clear 16 104.3 -18 87 -20 -27
13 April 2021
23:00 SW 12 Partly Cloudy 16 104.3 -18 86 -20 -29
22:00 SW 9 Cloudy 16 104.4 -18 84 -20 -27
21:00 S 6 Clear 16 104.4 -18 85 -20 -25

Zoom-in to make a selection

Map of Hudson - Hudson Bay marine weather areas Arviat Airport Baker Lake Airport Chesterfield Inlet Airport Coral Harbour Airport Rankin Inlet Airport Sanikiluaq Airport Whale Cove Airport Kinngait (Cape Dorset Airport) Iqaluit Airport Wager Bay Kimmirut Airport Churchill Airport Fort Severn Airport Peawanuck Airport Moosonee Airport Eastmain Airport La Grande Rivière Airport Waskaganish Airport Wemindji Airport Akulivik Airport Inukjuak Airport Ivujivik Airport Kuujjuarapik Airport Puvirnituq Airport Umiujaq Airport Aupaluk Airport Kangiqsujuaq Airport Kangirsuk Airport Kangiqsualujjuaq Airport Kuujjuaq Airport Quaqtaq Airport Salluit Airport Tasiujaq Airport Cape Kakkiviak
Legend:
buoy Buoy
land station Land Station

Hudson - Hudson Bay Area

Another Region

What we are doing

Date modified: